{"data":{"norad_id":45081,"intl_designator":"2020-006AP","name":"STARLINK-1151","alt_names":[],"object_type":"PAYLOAD","status":"ACTIVE","operator":null,"country":"US","launch_date":"2020-01-29","launch_site_code":"AFETR","launch_vehicle":null,"mission":null,"orbit_class":"UNKNOWN","rcs_meters":null,"size_class":null,"mass_kg":null,"dimensions":null,"purposes":["comms"],"wikipedia_slug":null,"has_3d_model":false,"image_url":null,"decayed_at":null,"tle_current":{"epoch":"2026-07-31T23:26:11.139648Z","epoch_age_seconds":4379768,"freshness":"OLD","line1":"1 45081U 20006AP  26212.97651782  .12214847  12588-4  19965-3 0  9994","line2":"2 45081  53.0284 233.3602 0005967 274.7767  85.2601 16.47820578359960","mean_motion":16.47820578,"eccentricity":0.0005967,"inclination_deg":53.0284,"raan_deg":233.3602,"arg_perigee_deg":274.7767,"mean_anomaly_deg":85.2601,"bstar":0.00019965,"rev_number":35996,"period_min":87.388154949962,"perigee_km":141.18860801702,"apogee_km":148.97341639279,"semimajor_km":6523.2180122049,"source":"CELESTRAK","updated_at":"2026-08-01T09:00:48.817799Z"}}}